Year,Month,Day,Hour,Minute,Value (Times are PST for temperature in C)
2018,10,04,00,00,7.20
2018,10,04,00,01,7.20
2018,10,04,00,02,7.20
2018,10,04,00,03,7.20
2018,10,04,00,04,7.10
2018,10,04,00,05,7.10
2018,10,04,00,06,7.10
2018,10,04,00,07,7.10
2018,10,04,00,08,7.10
2018,10,04,00,09,7.10
2018,10,04,00,10,7.10
2018,10,04,00,11,7.10
2018,10,04,00,12,7.10
2018,10,04,00,13,7.10
2018,10,04,00,14,7.10
2018,10,04,00,15,7.10
2018,10,04,00,16,7.10
2018,10,04,00,17,7.10
2018,10,04,00,18,7.10
2018,10,04,00,19,7.00
2018,10,04,00,20,7.00
2018,10,04,00,21,7.00
2018,10,04,00,22,7.00
2018,10,04,00,23,7.00
2018,10,04,00,24,7.00
2018,10,04,00,25,6.90
2018,10,04,00,26,6.90
2018,10,04,00,27,6.90
2018,10,04,00,28,6.90
2018,10,04,00,29,6.90
2018,10,04,00,30,6.90
2018,10,04,00,31,6.90
2018,10,04,00,32,6.80
2018,10,04,00,33,6.80
2018,10,04,00,34,6.80
2018,10,04,00,35,6.80
2018,10,04,00,36,6.70
2018,10,04,00,37,6.70
2018,10,04,00,38,6.70
2018,10,04,00,39,6.70
2018,10,04,00,40,6.70
2018,10,04,00,41,6.70
2018,10,04,00,42,6.70
2018,10,04,00,43,6.70
2018,10,04,00,44,6.60
2018,10,04,00,45,6.60
2018,10,04,00,46,6.60
2018,10,04,00,47,6.60
2018,10,04,00,48,6.50
2018,10,04,00,49,6.50
2018,10,04,00,50,6.50
2018,10,04,00,51,6.50
2018,10,04,00,52,6.40
2018,10,04,00,53,6.40
2018,10,04,00,54,6.40
2018,10,04,00,55,6.40
2018,10,04,00,56,6.40
2018,10,04,00,57,6.40
2018,10,04,00,58,6.40
2018,10,04,00,59,6.40
2018,10,04,01,00,6.40
2018,10,04,01,01,6.30
2018,10,04,01,02,6.30
2018,10,04,01,03,6.30
2018,10,04,01,04,6.30
2018,10,04,01,05,6.30
2018,10,04,01,06,6.20
2018,10,04,01,07,6.20
2018,10,04,01,08,6.20
2018,10,04,01,09,6.20
2018,10,04,01,10,6.20
2018,10,04,01,11,6.10
2018,10,04,01,12,6.10
2018,10,04,01,13,6.10
2018,10,04,01,14,6.00
2018,10,04,01,15,6.00
2018,10,04,01,16,5.90
2018,10,04,01,17,5.90
2018,10,04,01,18,5.90
2018,10,04,01,19,5.90
2018,10,04,01,20,5.90
2018,10,04,01,21,5.90
2018,10,04,01,22,5.90
2018,10,04,01,23,5.90
2018,10,04,01,24,5.90
2018,10,04,01,25,5.90
2018,10,04,01,26,5.80
2018,10,04,01,27,5.80
2018,10,04,01,28,5.80
2018,10,04,01,29,5.80
2018,10,04,01,30,5.70
2018,10,04,01,31,5.70
2018,10,04,01,32,5.70
2018,10,04,01,33,5.70
2018,10,04,01,34,5.70
2018,10,04,01,35,5.70
2018,10,04,01,36,5.70
2018,10,04,01,37,5.70
2018,10,04,01,38,5.70
2018,10,04,01,39,5.70
2018,10,04,01,40,5.70
2018,10,04,01,41,5.70
2018,10,04,01,42,5.80
2018,10,04,01,43,5.80
2018,10,04,01,44,5.80
2018,10,04,01,45,5.80
2018,10,04,01,46,5.80
2018,10,04,01,47,5.80
2018,10,04,01,48,5.80
2018,10,04,01,49,5.80
2018,10,04,01,50,5.80
2018,10,04,01,51,5.80
2018,10,04,01,52,5.80
2018,10,04,01,53,5.80
2018,10,04,01,54,5.80
2018,10,04,01,55,5.80
2018,10,04,01,56,5.80
2018,10,04,01,57,5.80
2018,10,04,01,58,5.80
2018,10,04,01,59,5.80
2018,10,04,02,00,5.80
2018,10,04,02,01,5.80
2018,10,04,02,02,5.80
2018,10,04,02,03,5.80
2018,10,04,02,04,5.80
2018,10,04,02,05,5.80
2018,10,04,02,06,5.80
2018,10,04,02,07,5.90
2018,10,04,02,08,5.90
2018,10,04,02,09,5.80
2018,10,04,02,10,5.80
2018,10,04,02,11,5.80
2018,10,04,02,12,5.80
2018,10,04,02,13,5.80
2018,10,04,02,14,5.80
2018,10,04,02,15,5.80
2018,10,04,02,16,5.80
2018,10,04,02,17,5.70
2018,10,04,02,18,5.70
2018,10,04,02,19,5.70
2018,10,04,02,20,5.70
2018,10,04,02,21,5.70
2018,10,04,02,22,5.70
2018,10,04,02,23,5.70
2018,10,04,02,24,5.70
2018,10,04,02,25,5.70
2018,10,04,02,26,5.60
2018,10,04,02,27,5.60
2018,10,04,02,28,5.60
2018,10,04,02,29,5.60
2018,10,04,02,30,5.60
2018,10,04,02,31,5.70
2018,10,04,02,32,5.60
2018,10,04,02,33,5.70
2018,10,04,02,34,5.70
2018,10,04,02,35,5.70
2018,10,04,02,36,5.70
2018,10,04,02,37,5.70
2018,10,04,02,38,5.70
2018,10,04,02,39,5.70
2018,10,04,02,40,5.70
2018,10,04,02,41,5.70
2018,10,04,02,42,5.70
2018,10,04,02,43,5.70
2018,10,04,02,44,5.70
2018,10,04,02,45,5.70
2018,10,04,02,46,5.70
2018,10,04,02,47,5.70
2018,10,04,02,48,5.70
2018,10,04,02,49,5.70
2018,10,04,02,50,5.70
2018,10,04,02,51,5.70
2018,10,04,02,52,5.70
2018,10,04,02,53,5.70
2018,10,04,02,54,5.70
2018,10,04,02,55,5.70
2018,10,04,02,56,5.70
2018,10,04,02,57,5.70
2018,10,04,02,58,5.70
2018,10,04,02,59,5.70
2018,10,04,03,00,5.70
2018,10,04,03,01,5.70
2018,10,04,03,02,5.70
2018,10,04,03,03,5.80
2018,10,04,03,04,5.70
2018,10,04,03,05,5.70
2018,10,04,03,06,5.70
2018,10,04,03,07,5.70
2018,10,04,03,08,5.70
2018,10,04,03,09,5.70
2018,10,04,03,10,5.70
2018,10,04,03,11,5.70
2018,10,04,03,12,5.70
2018,10,04,03,13,5.60
2018,10,04,03,14,5.60
2018,10,04,03,15,5.60
2018,10,04,03,16,5.60
2018,10,04,03,17,5.70
2018,10,04,03,18,5.70
2018,10,04,03,19,5.70
2018,10,04,03,20,5.70
2018,10,04,03,21,5.60
2018,10,04,03,22,5.60
2018,10,04,03,23,5.60
2018,10,04,03,24,5.60
2018,10,04,03,25,5.60
2018,10,04,03,26,5.60
2018,10,04,03,27,5.60
2018,10,04,03,28,5.60
2018,10,04,03,29,5.60
2018,10,04,03,30,5.60
2018,10,04,03,31,5.60
2018,10,04,03,32,5.60
2018,10,04,03,33,5.60
2018,10,04,03,34,5.60
2018,10,04,03,35,5.60
2018,10,04,03,36,5.60
2018,10,04,03,37,5.60
2018,10,04,03,38,5.60
2018,10,04,03,39,5.60
2018,10,04,03,40,5.60
2018,10,04,03,41,5.60
2018,10,04,03,42,5.60
2018,10,04,03,43,5.60
2018,10,04,03,44,5.60
2018,10,04,03,45,5.60
2018,10,04,03,46,5.60
2018,10,04,03,47,5.60
2018,10,04,03,48,5.60
2018,10,04,03,49,5.70
2018,10,04,03,50,5.70
2018,10,04,03,51,5.70
2018,10,04,03,52,5.70
2018,10,04,03,53,5.70
2018,10,04,03,54,5.70
2018,10,04,03,55,5.70
2018,10,04,03,56,5.70
2018,10,04,03,57,5.70
2018,10,04,03,58,5.70
2018,10,04,03,59,5.70
2018,10,04,04,00,5.70
2018,10,04,04,01,5.60
2018,10,04,04,02,5.60
2018,10,04,04,03,5.60
2018,10,04,04,04,5.60
2018,10,04,04,05,5.60
2018,10,04,04,06,5.60
2018,10,04,04,07,5.60
2018,10,04,04,08,5.60
2018,10,04,04,09,5.60
2018,10,04,04,10,5.60
2018,10,04,04,11,5.60
2018,10,04,04,12,5.60
2018,10,04,04,13,5.60
2018,10,04,04,14,5.60
2018,10,04,04,15,5.50
2018,10,04,04,16,5.50
2018,10,04,04,17,5.50
2018,10,04,04,18,5.50
2018,10,04,04,19,5.50
2018,10,04,04,20,5.40
2018,10,04,04,21,5.40
2018,10,04,04,22,5.40
2018,10,04,04,23,5.40
2018,10,04,04,24,5.40
2018,10,04,04,25,5.30
2018,10,04,04,26,5.30
2018,10,04,04,27,5.30
2018,10,04,04,28,5.30
2018,10,04,04,29,5.30
2018,10,04,04,30,5.20
2018,10,04,04,31,5.20
2018,10,04,04,32,5.20
2018,10,04,04,33,5.10
2018,10,04,04,34,5.10
2018,10,04,04,35,5.10
2018,10,04,04,36,5.10
2018,10,04,04,37,5.10
2018,10,04,04,38,5.00
2018,10,04,04,39,5.00
2018,10,04,04,40,5.00
2018,10,04,04,41,5.00
2018,10,04,04,42,5.00
2018,10,04,04,43,5.00
2018,10,04,04,44,4.90
2018,10,04,04,45,4.90
2018,10,04,04,46,4.90
2018,10,04,04,47,4.80
2018,10,04,04,48,4.80
2018,10,04,04,49,4.80
2018,10,04,04,50,4.80
2018,10,04,04,51,4.70
2018,10,04,04,52,4.70
2018,10,04,04,53,4.70
2018,10,04,04,54,4.70
2018,10,04,04,55,4.70
2018,10,04,04,56,4.70
2018,10,04,04,57,4.70
2018,10,04,04,58,4.70
2018,10,04,04,59,4.80
2018,10,04,05,00,4.80
2018,10,04,05,01,4.70
2018,10,04,05,02,4.70
2018,10,04,05,03,4.70
2018,10,04,05,04,4.70
2018,10,04,05,05,4.70
2018,10,04,05,06,4.70
2018,10,04,05,07,4.70
2018,10,04,05,08,4.70
2018,10,04,05,09,4.70
2018,10,04,05,10,4.60
2018,10,04,05,11,4.60
2018,10,04,05,12,4.60
2018,10,04,05,13,4.60
2018,10,04,05,14,4.60
2018,10,04,05,15,4.60
2018,10,04,05,16,4.60
2018,10,04,05,17,4.60
2018,10,04,05,18,4.60
2018,10,04,05,19,4.50
2018,10,04,05,20,4.50
2018,10,04,05,21,4.50
2018,10,04,05,22,4.40
2018,10,04,05,23,4.40
2018,10,04,05,24,4.40
2018,10,04,05,25,4.40
2018,10,04,05,26,4.40
2018,10,04,05,27,4.30
2018,10,04,05,28,4.30
2018,10,04,05,29,4.30
2018,10,04,05,30,4.30
2018,10,04,05,31,4.40
2018,10,04,05,32,4.40
2018,10,04,05,33,4.40
2018,10,04,05,34,4.40
2018,10,04,05,35,4.40
2018,10,04,05,36,4.40
2018,10,04,05,37,4.50
2018,10,04,05,38,4.50
2018,10,04,05,39,4.50
2018,10,04,05,40,4.50
2018,10,04,05,41,4.60
2018,10,04,05,42,4.60
2018,10,04,05,43,4.60
2018,10,04,05,44,4.60
2018,10,04,05,45,4.60
2018,10,04,05,46,4.60
2018,10,04,05,47,4.60
2018,10,04,05,48,4.60
2018,10,04,05,49,4.60
2018,10,04,05,50,4.60
2018,10,04,05,51,4.60
2018,10,04,05,52,4.60
2018,10,04,05,53,4.60
2018,10,04,05,54,4.60
2018,10,04,05,55,4.50
2018,10,04,05,56,4.50
2018,10,04,05,57,4.50
2018,10,04,05,58,4.50
2018,10,04,05,59,4.50
2018,10,04,06,00,4.50
2018,10,04,06,01,4.60
2018,10,04,06,02,4.60
2018,10,04,06,03,4.60
2018,10,04,06,04,4.60
2018,10,04,06,05,4.60
2018,10,04,06,06,4.60
2018,10,04,06,07,4.60
2018,10,04,06,08,4.60
2018,10,04,06,09,4.70
2018,10,04,06,10,4.70
2018,10,04,06,11,4.70
2018,10,04,06,12,4.70
2018,10,04,06,13,4.70
2018,10,04,06,14,4.70
2018,10,04,06,15,4.70
2018,10,04,06,16,4.70
2018,10,04,06,17,4.70
2018,10,04,06,18,4.70
2018,10,04,06,19,4.70
2018,10,04,06,20,4.70
2018,10,04,06,21,4.70
2018,10,04,06,22,4.70
2018,10,04,06,23,4.70
2018,10,04,06,24,4.70
2018,10,04,06,25,4.70
2018,10,04,06,26,4.70
2018,10,04,06,27,4.70
2018,10,04,06,28,4.70
2018,10,04,06,29,4.70
2018,10,04,06,30,4.70
2018,10,04,06,31,4.70
2018,10,04,06,32,4.80
2018,10,04,06,33,4.80
2018,10,04,06,34,4.80
2018,10,04,06,35,4.80
2018,10,04,06,36,4.80
2018,10,04,06,37,4.80
2018,10,04,06,38,4.80
2018,10,04,06,39,4.80
2018,10,04,06,40,4.80
2018,10,04,06,41,4.90
2018,10,04,06,42,4.90
2018,10,04,06,43,4.90
2018,10,04,06,44,4.90
2018,10,04,06,45,4.90
2018,10,04,06,46,4.90
2018,10,04,06,47,4.90
2018,10,04,06,48,4.90
2018,10,04,06,49,4.90
2018,10,04,06,50,4.90
2018,10,04,06,51,4.90
2018,10,04,06,52,4.90
2018,10,04,06,53,4.90
2018,10,04,06,54,4.90
2018,10,04,06,55,4.90
2018,10,04,06,56,4.90
2018,10,04,06,57,4.90
2018,10,04,06,58,4.90
2018,10,04,06,59,4.90
2018,10,04,07,00,4.90
2018,10,04,07,01,4.90
2018,10,04,07,02,4.90
2018,10,04,07,03,4.90
2018,10,04,07,04,4.90
2018,10,04,07,05,4.90
2018,10,04,07,06,4.90
2018,10,04,07,07,4.90
2018,10,04,07,08,4.90
2018,10,04,07,09,4.90
2018,10,04,07,10,4.90
2018,10,04,07,11,4.90
2018,10,04,07,12,4.90
2018,10,04,07,13,4.90
2018,10,04,07,14,4.90
2018,10,04,07,15,5.00
2018,10,04,07,16,5.00
2018,10,04,07,17,5.00
2018,10,04,07,18,5.00
2018,10,04,07,19,5.00
2018,10,04,07,20,5.00
2018,10,04,07,21,5.00
2018,10,04,07,22,5.00
2018,10,04,07,23,5.00
2018,10,04,07,24,5.00
2018,10,04,07,25,5.10
2018,10,04,07,26,5.10
2018,10,04,07,27,5.10
2018,10,04,07,28,5.10
2018,10,04,07,29,5.10
2018,10,04,07,30,5.10
2018,10,04,07,31,5.10
2018,10,04,07,32,5.10
2018,10,04,07,33,5.10
2018,10,04,07,34,5.10
2018,10,04,07,35,5.10
2018,10,04,07,36,5.00
2018,10,04,07,37,5.00
2018,10,04,07,38,5.00
2018,10,04,07,39,4.90
2018,10,04,07,40,4.90
2018,10,04,07,41,4.90
2018,10,04,07,42,4.90
2018,10,04,07,43,4.90
2018,10,04,07,44,4.90
2018,10,04,07,45,4.90
2018,10,04,07,46,4.90
2018,10,04,07,47,4.90
2018,10,04,07,48,5.00
2018,10,04,07,49,5.00
2018,10,04,07,50,5.10
2018,10,04,07,51,5.10
2018,10,04,07,52,5.10
2018,10,04,07,53,5.20
2018,10,04,07,54,5.20
2018,10,04,07,55,5.20
2018,10,04,07,56,5.20
2018,10,04,07,57,5.20
2018,10,04,07,58,5.30
2018,10,04,07,59,5.30
2018,10,04,08,00,5.30
2018,10,04,08,01,5.30
2018,10,04,08,02,5.40
2018,10,04,08,03,5.40
2018,10,04,08,04,5.50
2018,10,04,08,05,5.50
2018,10,04,08,06,5.50
2018,10,04,08,07,5.60
2018,10,04,08,08,5.70
2018,10,04,08,09,5.70
2018,10,04,08,10,5.80
2018,10,04,08,11,5.80
2018,10,04,08,12,5.90
2018,10,04,08,13,5.90
2018,10,04,08,14,6.00
2018,10,04,08,15,6.10
2018,10,04,08,16,6.10
2018,10,04,08,17,6.20
2018,10,04,08,18,6.30
2018,10,04,08,19,6.30
2018,10,04,08,20,6.40
2018,10,04,08,21,6.40
2018,10,04,08,22,6.50
2018,10,04,08,23,6.50
2018,10,04,08,24,6.60
2018,10,04,08,25,6.60
2018,10,04,08,26,6.70
2018,10,04,08,27,6.70
2018,10,04,08,28,6.80
2018,10,04,08,29,6.90
2018,10,04,08,30,6.90
2018,10,04,08,31,7.00
2018,10,04,08,32,7.00
2018,10,04,08,33,7.10
2018,10,04,08,34,7.10
2018,10,04,08,35,7.20
2018,10,04,08,36,7.20
2018,10,04,08,37,7.30
2018,10,04,08,38,7.30
2018,10,04,08,39,7.40
2018,10,04,08,40,7.40
2018,10,04,08,41,7.50
2018,10,04,08,42,7.50
2018,10,04,08,43,7.50
2018,10,04,08,44,7.60
2018,10,04,08,45,7.60
2018,10,04,08,46,7.70
2018,10,04,08,47,7.70
2018,10,04,08,48,7.80
2018,10,04,08,49,7.80
2018,10,04,08,50,7.90
2018,10,04,08,51,7.90
2018,10,04,08,52,7.90
2018,10,04,08,53,8.00
2018,10,04,08,54,8.10
2018,10,04,08,55,8.10
2018,10,04,08,56,8.20
2018,10,04,08,57,8.20
2018,10,04,08,58,8.30
2018,10,04,08,59,8.30
2018,10,04,09,00,8.30
2018,10,04,09,01,8.40
2018,10,04,09,02,8.40
2018,10,04,09,03,8.50
2018,10,04,09,04,8.50
2018,10,04,09,05,8.60
2018,10,04,09,06,8.60
2018,10,04,09,07,8.70
2018,10,04,09,08,8.70
2018,10,04,09,09,8.80
2018,10,04,09,10,8.80
2018,10,04,09,11,8.90
2018,10,04,09,12,9.00
2018,10,04,09,13,9.00
2018,10,04,09,14,9.10
2018,10,04,09,15,9.20
2018,10,04,09,16,9.20
2018,10,04,09,17,9.30
2018,10,04,09,18,9.30
2018,10,04,09,19,9.40
2018,10,04,09,20,9.40
2018,10,04,09,21,9.50
2018,10,04,09,22,9.50
2018,10,04,09,23,9.60
2018,10,04,09,24,9.60
2018,10,04,09,25,9.60
2018,10,04,09,26,9.60
2018,10,04,09,27,9.60
2018,10,04,09,28,9.70
2018,10,04,09,29,9.70
2018,10,04,09,30,9.70
2018,10,04,09,31,9.80
2018,10,04,09,32,9.80
2018,10,04,09,33,9.90
2018,10,04,09,34,9.90
2018,10,04,09,35,10.00
2018,10,04,09,36,10.00
2018,10,04,09,37,10.10
2018,10,04,09,38,10.10
2018,10,04,09,39,10.10
2018,10,04,09,40,10.20
2018,10,04,09,41,10.20
2018,10,04,09,42,10.20
2018,10,04,09,43,10.20
2018,10,04,09,44,10.20
2018,10,04,09,45,10.20
2018,10,04,09,46,10.20
2018,10,04,09,47,10.30
2018,10,04,09,48,10.30
2018,10,04,09,49,10.30
2018,10,04,09,50,10.40
2018,10,04,09,51,10.40
2018,10,04,09,52,10.50
2018,10,04,09,53,10.60
2018,10,04,09,54,10.60
2018,10,04,09,55,10.70
2018,10,04,09,56,10.70
2018,10,04,09,57,10.70
2018,10,04,09,58,10.70
2018,10,04,09,59,10.70
2018,10,04,10,00,10.70
2018,10,04,10,01,10.70
2018,10,04,10,02,10.70
2018,10,04,10,03,10.70
2018,10,04,10,04,10.80
2018,10,04,10,05,10.80
2018,10,04,10,06,10.80
2018,10,04,10,07,10.80
2018,10,04,10,08,10.80
2018,10,04,10,09,10.80
2018,10,04,10,10,10.80
2018,10,04,10,11,10.80
2018,10,04,10,12,10.80
2018,10,04,10,13,10.90
2018,10,04,10,14,10.90
2018,10,04,10,15,10.90
2018,10,04,10,16,10.90
2018,10,04,10,17,10.90
2018,10,04,10,18,10.90
2018,10,04,10,19,10.90
2018,10,04,10,20,10.90
2018,10,04,10,21,10.90
2018,10,04,10,22,10.90
2018,10,04,10,23,10.90
2018,10,04,10,24,10.90
2018,10,04,10,25,10.90
2018,10,04,10,26,10.90
2018,10,04,10,27,10.80
2018,10,04,10,28,10.80
2018,10,04,10,29,10.80
2018,10,04,10,30,10.80
2018,10,04,10,31,10.90
2018,10,04,10,32,10.90
2018,10,04,10,33,10.90
2018,10,04,10,34,11.00
2018,10,04,10,35,10.90
2018,10,04,10,36,10.90
2018,10,04,10,37,10.90
2018,10,04,10,38,11.00
2018,10,04,10,39,11.00
2018,10,04,10,40,11.10
2018,10,04,10,41,11.10
2018,10,04,10,42,11.10
2018,10,04,10,43,11.20
2018,10,04,10,44,11.30
2018,10,04,10,45,11.30
2018,10,04,10,46,11.30
2018,10,04,10,47,11.30
2018,10,04,10,48,11.40
2018,10,04,10,49,11.40
2018,10,04,10,50,11.40
2018,10,04,10,51,11.30
2018,10,04,10,52,11.30
2018,10,04,10,53,11.30
2018,10,04,10,54,11.30
2018,10,04,10,55,11.20
2018,10,04,10,56,11.20
2018,10,04,10,57,11.20
2018,10,04,10,58,11.10
2018,10,04,10,59,11.10
2018,10,04,11,00,11.10
2018,10,04,11,01,11.00
2018,10,04,11,02,11.00
2018,10,04,11,03,11.00
2018,10,04,11,04,11.00
2018,10,04,11,05,11.10
2018,10,04,11,06,11.10
2018,10,04,11,07,11.20
2018,10,04,11,08,11.20
2018,10,04,11,09,11.30
2018,10,04,11,10,11.30
2018,10,04,11,11,11.30
2018,10,04,11,12,11.40
2018,10,04,11,13,11.40
2018,10,04,11,14,11.40
2018,10,04,11,15,11.40
2018,10,04,11,16,11.40
2018,10,04,11,17,11.40
2018,10,04,11,18,11.40
2018,10,04,11,19,11.50
2018,10,04,11,20,11.50
2018,10,04,11,21,11.50
2018,10,04,11,22,11.50
2018,10,04,11,23,11.50
2018,10,04,11,24,11.40
2018,10,04,11,25,11.40
2018,10,04,11,26,11.40
2018,10,04,11,27,11.50
2018,10,04,11,28,11.50
2018,10,04,11,29,11.50
2018,10,04,11,30,11.60
2018,10,04,11,31,11.60
2018,10,04,11,32,11.60
2018,10,04,11,33,11.70
2018,10,04,11,34,11.70
2018,10,04,11,35,11.70
2018,10,04,11,36,11.80
2018,10,04,11,37,11.80
2018,10,04,11,38,11.80
2018,10,04,11,39,11.90
2018,10,04,11,40,11.90
2018,10,04,11,41,11.90
2018,10,04,11,42,12.00
2018,10,04,11,43,12.00
2018,10,04,11,44,12.00
2018,10,04,11,45,12.00
2018,10,04,11,46,12.00
2018,10,04,11,47,12.00
2018,10,04,11,48,12.10
2018,10,04,11,49,12.10
2018,10,04,11,50,12.20
2018,10,04,11,51,12.30
2018,10,04,11,52,12.30
2018,10,04,11,53,12.30
2018,10,04,11,54,12.30
2018,10,04,11,55,12.30
2018,10,04,11,56,12.30
2018,10,04,11,57,12.30
2018,10,04,11,58,12.30
2018,10,04,11,59,12.30
2018,10,04,12,00,12.30
2018,10,04,12,01,12.30
2018,10,04,12,02,12.30
2018,10,04,12,03,12.40
2018,10,04,12,04,12.40
2018,10,04,12,05,12.40
2018,10,04,12,06,12.40
2018,10,04,12,07,12.50
2018,10,04,12,08,12.50
2018,10,04,12,09,12.50
2018,10,04,12,10,12.60
2018,10,04,12,11,12.60
2018,10,04,12,12,12.50
2018,10,04,12,13,12.50
2018,10,04,12,14,12.50
2018,10,04,12,15,12.60
2018,10,04,12,16,12.60
2018,10,04,12,17,12.60
2018,10,04,12,18,12.70
2018,10,04,12,19,12.70
2018,10,04,12,20,12.70
2018,10,04,12,21,12.70
2018,10,04,12,22,12.70
2018,10,04,12,23,12.70
2018,10,04,12,24,12.70
2018,10,04,12,25,12.70
2018,10,04,12,26,12.70
2018,10,04,12,27,12.80
2018,10,04,12,28,12.80
2018,10,04,12,29,12.80
2018,10,04,12,30,12.80
2018,10,04,12,31,12.90
2018,10,04,12,32,13.00
2018,10,04,12,33,13.00
2018,10,04,12,34,13.00
2018,10,04,12,35,13.00
2018,10,04,12,36,13.00
2018,10,04,12,37,12.90
2018,10,04,12,38,12.90
2018,10,04,12,39,13.00
2018,10,04,12,40,13.00
2018,10,04,12,41,13.00
2018,10,04,12,42,13.10
2018,10,04,12,43,13.10
2018,10,04,12,44,13.10
2018,10,04,12,45,13.20
2018,10,04,12,46,13.30
2018,10,04,12,47,13.30
2018,10,04,12,48,13.30
2018,10,04,12,49,13.30
2018,10,04,12,50,13.20
2018,10,04,12,51,13.10
2018,10,04,12,52,13.10
2018,10,04,12,53,13.10
2018,10,04,12,54,13.10
2018,10,04,12,55,13.10
2018,10,04,12,56,13.20
2018,10,04,12,57,13.20
2018,10,04,12,58,13.20
2018,10,04,12,59,13.30
2018,10,04,13,00,13.30
2018,10,04,13,01,13.30
2018,10,04,13,02,13.30
2018,10,04,13,03,13.30
2018,10,04,13,04,13.30
2018,10,04,13,05,13.20
2018,10,04,13,06,13.20
2018,10,04,13,07,13.20
2018,10,04,13,08,13.10
2018,10,04,13,09,13.10
2018,10,04,13,10,13.10
2018,10,04,13,11,13.20
2018,10,04,13,12,13.20
2018,10,04,13,13,13.20
2018,10,04,13,14,13.20
2018,10,04,13,15,13.30
2018,10,04,13,16,13.30
2018,10,04,13,17,13.30
2018,10,04,13,18,13.30
2018,10,04,13,19,13.40
2018,10,04,13,20,13.40
2018,10,04,13,21,13.50
2018,10,04,13,22,13.50
2018,10,04,13,23,13.60
2018,10,04,13,24,13.60
2018,10,04,13,25,13.70
2018,10,04,13,26,13.70
2018,10,04,13,27,13.70
2018,10,04,13,28,13.70
2018,10,04,13,29,13.70
2018,10,04,13,30,13.80
2018,10,04,13,31,13.80
2018,10,04,13,32,13.80
2018,10,04,13,33,13.80
2018,10,04,13,34,13.90
2018,10,04,13,35,13.90
2018,10,04,13,36,14.00
2018,10,04,13,37,14.00
2018,10,04,13,38,14.10
2018,10,04,13,39,14.10
2018,10,04,13,40,14.10
2018,10,04,13,41,14.00
2018,10,04,13,42,14.00
2018,10,04,13,43,14.00
2018,10,04,13,44,13.90
2018,10,04,13,45,13.80
2018,10,04,13,46,13.80
2018,10,04,13,47,13.70
2018,10,04,13,48,13.70
2018,10,04,13,49,13.70
2018,10,04,13,50,13.70
2018,10,04,13,51,13.80
2018,10,04,13,52,13.90
2018,10,04,13,53,13.90
2018,10,04,13,54,14.00
2018,10,04,13,55,14.00
2018,10,04,13,56,14.10
2018,10,04,13,57,14.20
2018,10,04,13,58,14.30
2018,10,04,13,59,14.20
2018,10,04,14,00,14.20
2018,10,04,14,01,14.20
2018,10,04,14,02,14.20
2018,10,04,14,03,14.20
2018,10,04,14,04,14.20
2018,10,04,14,05,14.30
2018,10,04,14,06,14.30
2018,10,04,14,07,14.30
2018,10,04,14,08,14.30
2018,10,04,14,09,14.20
2018,10,04,14,10,14.00
2018,10,04,14,11,14.00
2018,10,04,14,12,13.80
2018,10,04,14,13,13.80
2018,10,04,14,14,13.70
2018,10,04,14,15,13.70
2018,10,04,14,16,13.70
2018,10,04,14,17,13.60
2018,10,04,14,18,13.60
2018,10,04,14,19,13.60
2018,10,04,14,20,13.50
2018,10,04,14,21,13.50
2018,10,04,14,22,13.40
2018,10,04,14,23,13.40
2018,10,04,14,24,13.40
2018,10,04,14,25,13.50
2018,10,04,14,26,13.50
2018,10,04,14,27,13.40
2018,10,04,14,28,13.40
2018,10,04,14,29,13.30
2018,10,04,14,30,13.20
2018,10,04,14,31,13.10
2018,10,04,14,32,13.10
2018,10,04,14,33,13.10
2018,10,04,14,34,13.10
2018,10,04,14,35,13.00
2018,10,04,14,36,13.00
2018,10,04,14,37,12.90
2018,10,04,14,38,12.90
2018,10,04,14,39,12.80
2018,10,04,14,40,12.80
2018,10,04,14,41,12.70
2018,10,04,14,42,12.70
2018,10,04,14,43,12.80
2018,10,04,14,44,12.70
2018,10,04,14,45,12.70
2018,10,04,14,46,12.70
2018,10,04,14,47,12.80
2018,10,04,14,48,12.80
2018,10,04,14,49,12.80
2018,10,04,14,50,12.80
2018,10,04,14,51,12.80
2018,10,04,14,52,12.80
2018,10,04,14,53,12.70
2018,10,04,14,54,12.70
2018,10,04,14,55,12.70
2018,10,04,14,56,12.70
2018,10,04,14,57,12.80
2018,10,04,14,58,12.70
2018,10,04,14,59,12.60
2018,10,04,15,00,12.50
2018,10,04,15,01,12.40
2018,10,04,15,02,12.40
2018,10,04,15,03,12.40
2018,10,04,15,04,12.40
2018,10,04,15,05,12.40
2018,10,04,15,06,12.40
2018,10,04,15,07,12.50
2018,10,04,15,08,12.60
2018,10,04,15,09,12.60
2018,10,04,15,10,12.60
2018,10,04,15,11,12.60
2018,10,04,15,12,12.60
2018,10,04,15,13,12.60
2018,10,04,15,14,12.60
2018,10,04,15,15,12.60
2018,10,04,15,16,12.60
2018,10,04,15,17,12.60
2018,10,04,15,18,12.70
2018,10,04,15,19,12.70
2018,10,04,15,20,12.70
2018,10,04,15,21,12.70
2018,10,04,15,22,12.70
2018,10,04,15,23,12.70
2018,10,04,15,24,12.70
2018,10,04,15,25,12.70
2018,10,04,15,26,12.70
2018,10,04,15,27,12.70
2018,10,04,15,28,12.70
2018,10,04,15,29,12.70
2018,10,04,15,30,12.70
2018,10,04,15,31,12.80
2018,10,04,15,32,12.70
2018,10,04,15,33,12.80
2018,10,04,15,34,12.70
2018,10,04,15,35,12.70
2018,10,04,15,36,12.70
2018,10,04,15,37,12.70
2018,10,04,15,38,12.70
2018,10,04,15,39,12.70
2018,10,04,15,40,12.70
2018,10,04,15,41,12.70
2018,10,04,15,42,12.70
2018,10,04,15,43,12.70
2018,10,04,15,44,12.70
2018,10,04,15,45,12.70
2018,10,04,15,46,12.70
2018,10,04,15,47,12.70
2018,10,04,15,48,12.70
2018,10,04,15,49,12.60
2018,10,04,15,50,12.60
2018,10,04,15,51,12.60
2018,10,04,15,52,12.60
2018,10,04,15,53,12.50
2018,10,04,15,54,12.50
2018,10,04,15,55,12.50
2018,10,04,15,56,12.50
2018,10,04,15,57,12.60
2018,10,04,15,58,12.60
2018,10,04,15,59,12.60
2018,10,04,16,00,12.60
2018,10,04,16,01,12.60
2018,10,04,16,02,12.70
2018,10,04,16,03,12.70
2018,10,04,16,04,12.70
2018,10,04,16,05,12.70
2018,10,04,16,06,12.70
2018,10,04,16,07,12.80
2018,10,04,16,08,12.80
2018,10,04,16,09,12.90
2018,10,04,16,10,12.90
2018,10,04,16,11,13.00
2018,10,04,16,12,13.00
2018,10,04,16,13,13.10
2018,10,04,16,14,13.10
2018,10,04,16,15,13.00
2018,10,04,16,16,13.00
2018,10,04,16,17,12.90
2018,10,04,16,18,12.90
2018,10,04,16,19,12.90
2018,10,04,16,20,12.90
2018,10,04,16,21,12.80
2018,10,04,16,22,12.80
2018,10,04,16,23,12.80
2018,10,04,16,24,12.80
2018,10,04,16,25,12.80
2018,10,04,16,26,12.70
2018,10,04,16,27,12.70
2018,10,04,16,28,12.70
2018,10,04,16,29,12.70
2018,10,04,16,30,12.70
2018,10,04,16,31,12.80
2018,10,04,16,32,12.80
2018,10,04,16,33,12.80
2018,10,04,16,34,12.80
2018,10,04,16,35,12.80
2018,10,04,16,36,12.90
2018,10,04,16,37,12.90
2018,10,04,16,38,12.90
2018,10,04,16,39,12.90
2018,10,04,16,40,12.90
2018,10,04,16,41,12.90
2018,10,04,16,42,13.00
2018,10,04,16,43,13.00
2018,10,04,16,44,12.90
2018,10,04,16,45,13.00
2018,10,04,16,46,13.10
2018,10,04,16,47,13.10
2018,10,04,16,48,13.10
2018,10,04,16,49,13.20
2018,10,04,16,50,13.20
2018,10,04,16,51,13.20
2018,10,04,16,52,13.20
2018,10,04,16,53,13.20
2018,10,04,16,54,13.30
2018,10,04,16,55,13.30
2018,10,04,16,56,13.30
2018,10,04,16,57,13.30
2018,10,04,16,58,13.20
2018,10,04,16,59,13.20
2018,10,04,17,00,13.20
2018,10,04,17,01,13.20
2018,10,04,17,02,13.10
2018,10,04,17,03,13.10
2018,10,04,17,04,13.10
2018,10,04,17,05,13.10
2018,10,04,17,06,13.10
2018,10,04,17,07,13.10
2018,10,04,17,08,13.00
2018,10,04,17,09,13.00
2018,10,04,17,10,12.90
2018,10,04,17,11,12.90
2018,10,04,17,12,12.80
2018,10,04,17,13,12.80
2018,10,04,17,14,12.90
2018,10,04,17,15,12.90
2018,10,04,17,16,12.90
2018,10,04,17,17,12.90
2018,10,04,17,18,12.90
2018,10,04,17,19,12.90
2018,10,04,17,20,12.90
2018,10,04,17,21,12.90
2018,10,04,17,22,12.90
2018,10,04,17,23,12.80
2018,10,04,17,24,12.80
2018,10,04,17,25,12.70
2018,10,04,17,26,12.70
2018,10,04,17,27,12.70
2018,10,04,17,28,12.70
2018,10,04,17,29,12.70
2018,10,04,17,30,12.70
2018,10,04,17,31,12.70
2018,10,04,17,32,12.70
2018,10,04,17,33,12.60
2018,10,04,17,34,12.60
2018,10,04,17,35,12.60
2018,10,04,17,36,12.50
2018,10,04,17,37,12.50
2018,10,04,17,38,12.50
2018,10,04,17,39,12.40
2018,10,04,17,40,12.40
2018,10,04,17,41,12.30
2018,10,04,17,42,12.30
2018,10,04,17,43,12.30
2018,10,04,17,44,12.20